BIRD-G (42821 NORAD) Tracking and Keplerian Element Data

This shows tracking and keplerian element data for the satellite.

Feedback or suggestion? Click here.




ElementValue
Catalog42821
NameBIRD-G
Epoch Orbit5782
Epoch Day193.51870306
Epoch Year2018
RAAN232.6525
Inclination51.6331
Eccentricity0.0002274
Argument of Perigee293.5993
Mean Anonmoly66.4765
Mean Motion15.68202121
Decay Rate0.00017281
L11 42821U 98067MV 18193.51870306 .00017281 00000-0 15629-3 0 9994
L22 42821 051.6331 232.6525 0002274 293.5993 066.4765 15.68202121057822

Live tracking and technical data element details for BIRD-G (NORAD 42821). BIRD-G can be tracked NOW for your location showing map with azimuth and elevation plus other details from your city location.

Track the satellite on the map from your city or location and see movement details for azimuth, elevation, latitude, longitude, range, height, and movement on the map or in text.







IsCatalogInMostPopularTable: catalog: 42821, numindb: 67
Update: records affected: 1



GetName: 42821 BIRD-G

Hit Count: updated at: Thu, 19 Jul 2018 21:23:08 GMT